Hourly Data Report for June 05, 2021

BORDEN AWOS
ONTARIO
Current Station Operator: DND

44°16'20.000" N
79°54'42.000" W
222.50 m
611B002
71534
YBN

Download Data

Hourly Data (June 2021)
Hourly Data Report for June 5, 2021
TIME
LST
Temp Definition
°C
Dew Point Definition
°C
Rel Hum Definition
%
Precip. Amount Definition
mm

Wind Dir Definition
10's deg

Wind Spd Definition
km/h
Visibility Definition
km
Stn Press Definition
kPa
Hmdx Definition


Wind Chill Definition


Weather Definition


00:00 15.1 14.2 94     0 14.5 98.24     LegendNANA
01:00 15.6 14.0 90     0 14.5 98.20     LegendNANA
02:00 20.0 13.6 67   24 17 14.5 98.16     LegendNANA
03:00 21.4 12.3 56   24 15 14.5 98.16     LegendNANA
04:00 21.9 11.4 51   23 22 14.5 98.14     LegendNANA
05:00 23.1 10.7 46   25 22 14.5 98.16 25   LegendNANA
06:00 23.4 11.3 47   27 17 14.5 98.30 25   LegendNANA
07:00 24.7 11.9 45   25 22 14.5 98.31 27   LegendNANA
08:00 24.9 12.3 45   28 22 14.5 98.37 27   LegendNANA
09:00 25.8 13.3 46   26 20 14.5 98.39 29   LegendNANA
10:00 28.2 14.2 42   25 17 14.5 98.39 32   LegendNANA
11:00 27.6 13.5 42   25 26 14.5 98.39 31   LegendNANA
12:00 30.4 14.6 38   26 22 14.5 98.39 34   LegendNANA
13:00 30.3 14.0 37   24 24 14.5 98.36 34   LegendNANA
14:00 30.4 14.3 38   24 24 14.5 98.33 34   LegendNANA
15:00 30.0 14.2 38   25 26 14.5 98.35 33   LegendNANA
16:00 29.4 14.4 40   24 20 14.5 98.38 33   LegendNANA
17:00 29.6 15.0 41   28 9 14.5 98.38 34   LegendNANA
18:00 29.5 14.3 40   25 11 14.5 98.40 33   LegendNANA
19:00 27.8 14.1 43   22 11 14.5 98.41 31   LegendNANA
20:00 25.2 13.9 50   21 11 14.5 98.44 29   LegendNANA
21:00 24.5 14.1 52   18 15 14.5 98.48 28   LegendNANA
22:00 23.1 14.6 59   20 11 14.5 98.51 27   LegendNANA
23:00 24.8 14.2 52   23 20 14.5 98.55 28   LegendNANA

Notes on Data Quality.

Legend

  • E = Estimated
  • M = Missing
  • NA = Not Available*
  • [empty] = Indicates an unobserved value
Date modified: